Hoosier Classic - Hands on Inventory

Station: INVENTORY - T Race

Distance: 10 Miles

Release: 13-Sep-2017 02:15

Weather Release:    Arrival:

Wind at Release:     Wind at Arrival:

Temp at Release: °    Temp at Arrival: °

Lofts: 336

Birds: 1441

Clocked: 1374

Good Luck to Everyone!
Drops Pos Breeder Pigeon Name Color Sex Ent Arrival Speed To Win Eligible Op 1Op 2
1 Bryan Maier - PA 0327-AU17-MAIE BB H 1 14:20:22.20 24.263 00:00:00 Yes
2 Linda De Vries - ON 2346-CU17-OL 426-1604 CHPD H 1 14:20:27.80 24.260 00:00:05 Yes
3 Acre Farms - CA 0312-AU17-GENT BCH H 1 14:20:30.80 24.259 00:00:07 Yes
4 Ciz Loft - IL 7808-AU17-CHIC BB H 1 14:20:34.20 24.257 00:00:11 Yes
5 Meyler Lofts - IL 0858-AU17-RRV Tumbling Dice BCH H 1 14:20:41.10 24.253 00:00:18 Yes
6 Redtex - TX 0025-AU17-REDT BCH H 1 14:20:49.30 24.248 00:00:27 Yes
7 Erika's Family Loft - NV 0716-AU17-ERIK BB H 1 14:21:29.90 24.226 00:01:06 Yes
8 Brito Loft - FL 2402-AU17-SCHE BSP C 1 14:21:33.80 24.224 00:01:10 Yes
9 Dream Team - VT 0809-AU17-JCZL BB H 1 14:21:36.80 24.222 00:01:14 Yes
10 Ron Brooks - AR 1743-AU17-REB BCH C 1 14:21:40.70 24.220 00:01:17 Yes
11 Drodriguez - FL 1428-AU17-HRPC DCH C 1 14:21:46.60 24.217 00:01:23 Missing
12 Genesis Syndicate Loft - AZ 0259-AU17-SYN BB H 1 14:21:53.20 24.213 00:01:30 Yes
13 Chachi Loft - FL 30003-AU17-ARPU la diosa BBSP H 1 14:21:56.10 24.211 00:01:33 Missing
14 Yandy Family Loft - FL 53979-AU17-ARPU BB C 1 14:21:59.10 24.210 00:01:35 Yes
15 Aztec Loft - DE 0299-AU17-AZTE La Chueca BB H 1 14:22:03.30 24.207 00:01:41 Yes
16 Marian Taloi - OR 0503-AU17-OTC BCH H 1 14:22:07.20 24.205 00:01:44 Yes
17 H & H Loft - TX 6902-AU17-VK BB H 1 14:22:20.00 24.198 00:01:57 Yes
18 Michigan-Mina Nueva - MI 0715-AU17-CAPI DCH H 1 14:22:23.00 24.196 00:02:01 Yes
19 Hmong Syndicate - MN 0335-AU17-ROYA BLUE LABEL'S FINEST BWF H 1 14:22:36.60 24.189 00:02:13 Missing
20 777-Loft - MN 0221-AU17-SPR Heart & Soul BCH C 1 14:22:41.60 24.186 00:02:19 Yes
21 Mesopotamia Loft - MN 0326-AU17-MESO DCH H 1 14:22:45.10 24.184 00:02:22 Yes
22 Two-Be-Won - NV 17136-AU17-TWOB BB H 1 14:23:02.60 24.174 00:02:40 Yes
23 Seaview Loft - CA 0522-AU17-SFR BB H 1 14:23:05.20 24.173 00:02:42 Yes
24 A F L - GA 0171-AU17-AFL ,,DICKINSON'' BB C 1 14:23:08.70 24.171 00:02:46 Yes
25 Utaz Team - UT 0878-AU17-PSC BB H 1 14:23:12.60 24.169 00:02:49 Yes
26 Fassio Loft - UT 0507-AU17-SLI BBWF C 1 14:23:16.90 24.166 00:02:55 Yes
27 Zong Jing Tang - FL 18710-AU17-ARPU BCH C 1 14:23:23.80 24.163 00:03:00 Yes
28 Champ Camp/Hobo - IN 0148-AU17-CHAM BB C 1 14:23:30.50 24.159 00:03:07 Missing
29 Pleasant Task Farm - PA 0727-AU17-PTF 750x243 BBWF C 1 14:23:36.40 24.156 00:03:13 Yes
30 Julius Wilkerson - OR 60149-AU17-ARPU BB C 1 14:23:46.90 24.150 00:03:24 Yes
31 Elton Dinga - TX 12044-AU17-AA Gust Jansen x Vercammen BCH H 1 14:23:52.30 24.147 00:03:29 Missing
32 Bill Kluge - TX 1732-AU17-COLD 11 BB H 1 14:23:57.20 24.144 00:03:35 Yes
33 Pekala Loft - IL 0496-AU17-LVRP BCWF H 1 14:24:01.30 24.142 00:03:38 Yes
34 O & L De Vries - ON 2359-CU17-OL 2116 x 381 BCH C 1 14:24:07.50 24.139 00:03:44 Yes
35 Zapopan-Palomar-Ayon Loft - TX 0448-AU17-PALO BCH H 1 14:24:17.70 24.133 00:03:54 Yes
36 A P C Loft - TX 17206-AU17-APC BB C 1 14:24:22.20 24.130 00:04:00 Yes
37 Dylan Loft - FL 1213-AU17-HRPC BCH H 1 14:24:26.10 24.128 00:04:04 Yes
38 Flying D Loft - TX 0670-AU17-DEN BB C 1 14:24:29.90 24.126 00:04:07 Yes
39 Homrich - MI 1360-AU17-GRM BWF C 1 14:24:35.80 24.123 00:04:13 Yes
40 B Q E Loft - NY 0231-IF17-FVC Big Chris BB C 1 14:24:40.20 24.120 00:04:18 Yes
41 Flying Dragon Loft - GA 0524-AU17-GA BB H 1 14:24:49.50 24.115 00:04:27 Missing
42 Daehn/Miele - FL 0210-AU17-NWFI 1633 X 588 BB C 1 14:24:59.30 24.110 00:04:36 Missing
43 Futurity Classic De Guadalajara - DE 0018-AU17-FCI GRIZ C 1 14:25:02.40 24.108 00:04:40 Yes
44 America Loft - IN 19199-AU17-ARPU BB H 1 14:25:11.90 24.103 00:04:49 Yes
45 Zapopan-Palomar-Ayon Loft - TX 0445-AU17-PALO BB C 2 14:25:18.20 24.100 00:04:54 Yes
46 Venn Family Loft - WY 1712-AU17-VENN BWF C 1 14:25:22.30 24.097 00:05:00 Yes
47 A P C Loft - TX 34702-AU17-ARPU DCH C 2 14:25:26.00 24.095 00:05:03 Yes
48 Jones Family & Gwp Macaloney - TX 7086-AU17-JFL BB H 1 14:25:29.90 24.093 00:05:07 Yes
49 Isla Loft - FL 0587-AU17-HRPC BB H 1 14:25:34.40 24.091 00:05:11 Missing
50 Elton Dinga - TX 12031-AU17-AA Klaas BCH H 2 14:25:42.30 24.086 00:05:20 Yes
51 Baczynski Loft - IN 6644-AU17-VK BCH H 1 14:25:48.40 24.083 00:05:25 Missing
52 Richard Callahan - MO 1608-AU17-AA BCH H 1 14:25:53.80 24.080 00:05:31 Yes
53 K T Loft - IN 0222-AU17-KT BB H 1 14:26:14.50 24.069 00:05:51 Missing
54 Chicago's Finest - IL 0017-AU17-NIX Eulanda BB H 1 14:26:38.60 24.055 00:06:16 Yes
55 Modud - CO 17001-AU17-PUEB CHPD H 1 14:26:41.70 24.054 00:06:18 Missing
56 Chai Suen Siu - MI 1665-AU17-GRM CHPD H 1 14:26:45.60 24.052 00:06:22 Yes
57 Dream Team - VT 0505-AU17-JCZL BB H 2 14:26:49.00 24.050 00:06:25 Yes
58 Flying Pilgrims - OR 38408-AU17-ARPU Wind Fighter BCH H 1 14:26:55.50 24.046 00:06:33 Yes
59 ! ! ! S P E E D S - R A C E R S ! ! ! - FL 2176-AU17-SCHE Silent Night BCH H 1 14:26:58.10 24.045 00:06:35 Yes
60 Flying D Loft - TX 0273-AU17-FLYD BB C 2 14:27:02.70 24.042 00:06:40 Yes
61 Flying Dragon Loft - GA 0521-AU17-GA BB H 2 14:27:06.70 24.040 00:06:44 Yes
62 Szuba Loft - IL 0040-AU17-SZUB BB H 1 14:27:12.10 24.037 00:06:49 Yes
63 Fila Loft - OR 17781-AU17-FILA FILA-781 BB C 1 14:27:16.90 24.034 00:06:55 Yes
64 Jim & Jimmy - WI 72562-AU17-ARPU Pappes storm WFL C 1 14:27:19.80 24.033 00:06:57 Yes
65 Dream Union - DC 26164-AU17-YMTN BB C 1 14:27:32.00 24.026 00:07:09 Yes
66 Pekala Loft - IL 1101-AU17-CHIC BCWF H 2 14:27:46.60 24.018 00:07:24 Yes
67 Baldwin & Tilson - NC 7006-AU17-TENT BCH H 1 14:27:49.80 24.016 00:07:28 Missing
68 Yendez Loft - TX 0048-AU17-YEND BBWF H 1 14:29:40.90 23.956 00:09:18 Missing
69 Kowkow Family - IL 0220-AU17-BFS BB H 1 14:29:56.40 23.948 00:09:32 Yes
70 Champ Camp/Hobo - IN 0140-AU17-CHAM CHWF H 2 14:30:05.30 23.943 00:09:42 Yes
71 Erika's Family Loft - NV 0718-AU17-ERIK SILV C 2 14:30:12.00 23.939 00:09:49 Lost
72 Racine Jun Xiao - WI 0510-AU17-RAC BSP H 1 14:30:18.50 23.936 00:09:55 Yes
73 The X-Loft - IN 0011-AU17-XLOF Hollywood lights BWF H 1 14:30:28.00 23.930 00:10:06 Yes
74 Hwy 51 Loft - OK 0771-AU17-HWY BB C 1 14:30:35.70 23.926 00:10:13 Yes
75 Zeke/Michael - IA 1108-AU17-MEM BBWF C 1 14:30:43.40 23.922 00:10:20 Missing
76 Danny Lum - HI 7702-AU17-HIC BB H 1 14:30:59.10 23.914 00:10:35 Missing
77 H & H Loft - TX 6930-AU17-VK BB C 2 14:31:06.60 23.909 00:10:44 Yes
78 Elton Dinga - TX 12049-AU17-AA Vercammen x Jansen DCH C 3 14:31:13.70 23.906 00:10:50 Yes
79 Cicio\'s Loft - IL 0172-AU17-CICI BCH C 1 14:31:20.70 23.902 00:10:57 Yes
80 Linda De Vries - ON 2303-CU17-OL 410-1879 BB H 2 14:31:30.00 23.897 00:11:07 Yes
81 Ganus Family Loft - IN 0333-AU17-GFL BB H 1 14:31:36.90 23.893 00:11:14 Yes
82 Team Sandy - IN 0039-AU17-ANDY Crystal Sands CHSP H 1 14:31:49.50 23.886 00:11:27 Yes
83 Rpm Syndicate - ON 0103-IF17-BUFF BB C 1 14:32:02.70 23.879 00:11:40 Yes
84 Pekala Loft - IL 0467-AU17-LVRP H 3 14:32:07.90 23.876 00:11:45 Yes
85 C L & Patty Gage - TX 0692-AU17-DEN BB H 1 14:32:27.20 23.866 00:12:04 Missing
86 Duane Gragg - CA 0787-AU17-KEYH BB H 1 14:32:33.80 23.862 00:12:11 Missing
87 A F L - GA 0163-AU17-AFL BWF H 2 14:32:43.70 23.857 00:12:21 Missing
88 Gold Star Loft - CA 1264-AU17-STON DCH C 1 14:33:00.20 23.848 00:12:37 Yes
89 Pacos Lofts - CA 0772-AU17-PACO DCH H 1 14:33:23.10 23.836 00:13:00 Yes
90 J H Z Family Loft - FL 0004-AU17-JHZ BCH H 1 14:33:31.10 23.832 00:13:07 Yes
91 Fassio Loft - UT 0559-AU17-SLI BLK C 2 14:33:40.90 23.826 00:13:18 Yes
92 Skwiat/Braddy Syndicate - IN 0031-AU17-XLOF Baby Bird BB H 1 14:33:47.60 23.823 00:13:24 Yes
93 Bayside Loft - NY 56385-IF17-NEIL BWF H 1 14:34:07.80 23.812 00:13:44 Yes
94 The X-Loft - IN 0033-AU17-XLOF Super Cop BB C 2 14:34:14.50 23.808 00:13:52 Yes
95 Ken Easley & Son Racing - NM 5018-AU17-EASL 1139 x 119 DCH H 1 14:34:20.50 23.805 00:13:57 Yes
96 Schillings - IN 0869-AU17-BFS Tommy RCH C 1 14:34:33.00 23.798 00:14:10 Yes
97 Flying D Loft - TX 0678-AU17-DEN CHPD H 3 14:34:38.40 23.795 00:14:16 Yes
98 Liu's Loft - MO 19184-AU17-AA BB H 1 14:34:44.90 23.792 00:14:22 Missing
99 Galaxy Loft/Doug Sexton - FL 43722-AU17-ARPU CHSP H 1 14:34:51.70 23.788 00:14:29 Yes
100 Shelley Braddy - IN 0009-AU17-XLOF Wittenberg BB C 1 14:34:58.70 23.784 00:14:37 Yes

There are 1123 bird records

Note: These Race Results are unofficial and subject to change until verified by the Race Committee and declared final.